Powrót do katalogu

METEOR 2-11 DEB

AktywnyPO
NORAD 42455·DEBRIS·🇷🇺 Russia

Wystrzelony Jul 5, 1984 z Plesetsk Cosmodrome

Loading…

Następne Przeloty (najbliższe 24 godziny)

TLE

ŚwieżeSource: Space-Track

Epoka: Sep 11, 2026, 10:52 UTC

1 42455U 84072R   26254.45333134  .00000761  00000-0  53898-3 0  9996
2 42455  82.5254 306.9136 0009276 121.3925 238.8151 13.96569540572003

Śledź METEOR 2-11 DEB w czasie rzeczywistym z AllMySat

Download on the App Store